Regional Weather Roundup
Issued by NWS Northern Indiana

Home | Current Version | Previous Version | Text Only | Print | Product List | Glossary Off
Versions: 1 2 3 4 5 6 7 8 9 10 11 12 13 14 15 16 17 18 19 20 21 22 23 24 25 26 27 28 29 30 31 32 33 34 35 36 37 38 39 40 41 42 43 44 45 46 47 48 49 50

000
ASUS43 KIWX 281000
RWRIWX

KIWX WEATHER ROUNDUP
NATIONAL WEATHER SERVICE NORTHERN INDIANA
600 AM EDT MON JUL 28 2014

NOTE: "FAIR" INDICATES FEW OR NO CLOUDS BELOW 12,000 FEET WITH NO
SIGNIFICANT WEATHER AND/OR OBSTRUCTIONS TO VISIBILITY.

* THESE STATIONS ARE NOT UNDER NWS QUALITY CONTROL. THEY ALSO MAY NOT
  REPORT WEATHER SUCH AS PRECIPITATION OR FOG.

INZ001>027-281100-
NORTHERN INDIANA

CITY           SKY/WX    TMP DP  RH WIND       PRES   REMARKS
GARY*          PTCLDY    63  54  72 N23       29.95R
VALPARAISO     CLOUDY    61  54  77 N9G18     29.94R
SOUTH BEND     CLOUDY    61  55  81 NW14      29.91R
GOSHEN         MOCLDY    63  59  87 NW10      29.87R
WARSAW*        MOCLDY    61  59  94 NW8       29.88R
ANGOLA*        CLOUDY    63  54  72 N7        29.84R
FORT WAYNE     MOCLDY    62  58  86 NW7       29.86R
PERU/GRISSOM   CLOUDY    63  62  96 NW10      29.90R

$$
INZ028>050-281100-
CENTRAL INDIANA

CITY           SKY/WX    TMP DP  RH WIND       PRES   REMARKS
LAFAYETTE      PTCLDY    60  54  80 NW8       29.92R
KOKOMO*        CLOUDY    63  57  82 NW13      29.90R
MUNCIE*        CLOUDY    63  57  81 NW12      29.88R
INDIANAPOLIS   CLOUDY    63  57  81 NW16G23   29.89R

$$
MIZ043>046-050>051-056>058-064>065-071>073-077>080-281100-
SOUTHWEST LOWER MICHIGAN

CITY           SKY/WX    TMP DP  RH WIND       PRES   REMARKS
BATTLE CREEK   PTCLDY    62  57  83 N9        29.86R
BENTON HARBOR  PTCLDY    59  55  87 NW8       29.90R
COLDWATER*     CLOUDY    64  60  85 N12G17    29.84R
HILLSDALE*     CLOUDY    63  61  91 N9        29.83R
HOLLAND        CLEAR     59  54  83 NW8       29.90R
GRAND RAPIDS   PTCLDY    59  56  89 N8        29.88R
KALAMAZOO      CLOUDY    62  57  83 N17       29.87R
STURGIS*       MOCLDY    63  61  94 NW6       29.85R
THREE RIVERS*  MOCLDY    63  61  92 NW8       29.87R

$$
OHZ001>008-015>018-024>025-281100-
NORTHWEST OHIO

CITY           SKY/WX    TMP DP  RH WIND       PRES   REMARKS
DEFIANCE       CLEAR     62  58  86 NW5       29.82R
FINDLAY        CLOUDY    62  59  90 W10       29.79R
TOLEDO EXPRESS MOCLDY    61  58  90 NW8       29.78R
TOLEDO METCALF MOCLDY    63  58  83 NW12      29.77R
LIMA           CLOUDY    62  59  90 W9        29.82R

$$
&&


USA.gov is the U.S. government's official web portal to all federal, state and local government web resources and services.